Location: Gollag?dem
(16.8674°N, 80.8492°E)
Time: 19:47:44
(UTC+00:00)

Daily predictions for brighter satellites

Satellite Brightness Start Highest point End
(mag) Time Altitude Azimuth Time Altitude Azimuth Time Altitude Azimuth
Cosmos 2056 Rocket 3.6 13:28:38 10° SSW 13:33:45 83° WNW 13:38:59 10° NNE
CRYOSAT 2 4.4 13:30:08 10° SSE 13:34:57 68° E 13:39:45 10° N
Nadezhda 3 Rocket 4.0 13:29:01 10° S 13:35:09 78° E 13:41:17 10° N
Hubble Space Telescope 0.8 13:32:47 10° WNW 13:36:53 74° SSW 13:40:59 10° ESE
SAR-Lupe-4 4.4 13:35:02 10° NE 13:38:11 29° E 13:41:19 10° SSE
Palapa B4 Rocket 3.7 13:36:46 10° W 13:41:23 84° S 13:48:41 10° ESE
Cosmos 2285 Rocket 4.2 13:35:11 10° S 13:41:26 56° E 13:47:41 10° NNE
DMSP B5D2-2 4.1 13:36:19 10° NNE 13:41:33 88° WNW 13:46:45 10° SSW
Cosmos 2251 Rocket 3.6 13:37:53 10° N 13:43:09 67° ENE 13:48:26 10° SSE
SAR-Lupe-1 4.5 13:39:56 10° NNE 13:43:18 40° E 13:46:40 10° S
Cosmos 1420 Rocket 3.9 13:43:07 10° S 13:48:17 82° ESE 13:53:27 10° NNE
SL-4 R/B 3.6 13:45:12 10° S 13:48:28 19° SE 13:51:38 10° E
ARIANE 44L R/B 4.4 13:48:14 10° S 13:48:47 10° SSE 13:49:25 10° SSE
Cosmos 2360 Rocket 3.1 13:45:06 10° SSE 13:49:42 26° ESE 13:54:17 10° NE
HJ-1C 3.2 13:47:27 10° SSE 13:50:44 78° E 13:53:59 10° N
GPS 2-18 Rocket1 3.2 13:48:00 10° WSW 13:51:48 59° SSE 13:55:38 10° E
SL-16 R/B 2.2 13:47:37 10° SSW 13:53:16 83° ESE 13:58:56 10° NNE
Cosmos 2322 Rocket 2.2 13:47:53 10° S 13:53:27 59° ESE 13:59:02 10° NNE
ERS-2 2.7 13:52:32 10° NE 13:55:53 35° E 13:59:13 10° SSE
Lacrosse 5 rocket 2.4 13:53:58 10° SW 13:57:47 46° WNW 14:01:26 10° NNE
ARGOS 3.5 13:52:57 10° S 13:58:16 67° WSW 14:03:38 10° NNW
X-37B 2.2 13:57:27 10° S 13:59:36 17° SE 13:59:36 17° SE
Okean-O 2.6 13:55:39 10° SSE 14:00:04 90° SE 14:04:30 10° NNW
SL-08 RB Rocket 3.8 13:58:46 10° S 14:03:13 80° WSW 14:07:41 10° NNW
Cosmos 2082 3.7 13:58:15 10° NNW 14:03:56 72° ENE 14:09:34 10° SSE
NATO 3D Rocket 3.9 14:03:03 10° WNW 14:08:05 52° N 14:12:13 12° E
FUSE 4.3 14:06:17 10° W 14:11:33 55° SSW 14:15:06 20° SE
CSL-04 Rocket 3.7 14:09:13 10° SSE 14:14:40 76° ENE 14:20:12 10° N
Okean 2 3.3 14:14:13 10° S 14:18:16 65° E 14:22:18 10° NNE
Cosmos 1821 Rocket 4.0 14:12:37 10° N 14:18:45 83° W 14:24:48 10° S
Okean 2 Rocket 3.1 14:15:59 10° N 14:20:27 61° E 14:23:33 19° SSE
Cosmos 1842 3.8 14:16:49 10° SSW 14:20:40 59° W 14:24:32 10° N
Ariane Rocket 4.4 14:20:27 19° E 14:21:37 21° ENE 14:25:20 10° NNE
Cosmos 2237 4.1 14:16:50 10° SSW 14:22:31 80° ESE 14:28:12 10° NNE
Cosmos 1674 Rocket 3.8 14:18:50 10° S 14:23:14 70° W 14:27:35 10° N
OBJECT-B 1.0 14:27:35 43° ESE 14:27:56 46° ENE 14:31:01 10° N
Resurs 01 Rocket 3.8 14:29:29 11° ENE 14:29:29 11° ENE 14:29:57 10° NE
Meteor 1-21 4.1 14:23:39 10° S 14:29:21 81° E 14:35:00 10° N
H-2A R/B 4.2 14:26:40 10° SW 14:29:28 16° S 14:32:12 14° SSE
Cosmos 1300 Rocket 3.8 14:25:35 10° NNW 14:29:52 67° W 14:33:46 12° S
Cosmos 1400 Rocket 2.6 14:26:22 10° N 14:30:13 80° E 14:32:05 29° SSE
Cosmos 2151 Rocket 3.5 14:26:33 10° N 14:30:52 61° E 14:32:49 31° SSE
Lacrosse 5 4.1 14:30:41 10° NE 14:31:56 11° NE 14:33:03 10° ENE
Cosmos 1726 3.9 14:29:30 10° NE 14:31:04 17° ENE 14:31:04 17° ENE
Cosmos 1241 Rocket 4.4 14:28:46 10° NNW 14:35:02 69° ENE 14:38:16 29° SE
USA 186 1.3 14:35:13 69° SW 14:35:24 74° W 14:38:11 10° NNW
ATLAS 3B R/B 2.5 14:29:42 10° S 14:36:06 60° ESE 14:42:30 10° NE
USA 234 3.2 14:33:22 24° SE 14:37:35 86° SW 14:44:09 10° NW
Cosmos 1140 Rocket 3.4 14:33:08 10° N 14:38:22 80° ENE 14:40:57 31° SSE
In-Cosmos 22 4.1 14:39:58 27° SSE 14:42:41 58° E 14:47:50 10° NNE
Cosmos 1110 Rocket 3.9 14:40:03 19° S 14:43:41 61° ESE 14:48:46 10° NNE
Cosmos 1766 4.1 14:42:15 10° NNW 14:45:59 49° W 14:48:10 22° SSW
Cosmos 1934 Rocket 4.0 14:45:03 10° N 14:51:13 85° W 14:55:22 23° S
Cosmos 2263 Rocket 2.3 14:45:49 10° N 14:51:23 57° ENE 14:52:43 46° ESE
GPS 2-17 Rocket1 3.8 14:48:02 10° SW 14:51:09 35° SSW 14:51:09 35° SSW
Meteor 2-20 4.4 14:46:40 10° S 14:52:47 84° W 14:58:52 10° N
Cosmos 2333 4.1 14:52:38 28° S 14:55:42 63° ESE 15:01:22 10° NNE
Cosmos 1470 3.4 14:52:28 10° N 14:55:27 43° NE 14:55:27 43° NE
SJ-6B 3.2 14:57:17 46° SSW 14:58:17 62° WSW 15:02:20 10° NNW
Palapa 6 Rocket 4.2 14:52:37 10° WNW 14:59:18 73° SSW 15:01:50 44° SE
Cosmos 2219 Rocket 2.6 15:10:21 46° ENE 15:10:21 46° ENE 15:14:43 10° NNE
Cosmos 2333 Rocket 2.1 15:08:58 63° SE 15:09:36 68° ESE 15:15:18 10° NNE
Cosmos 1727 Rocket 4.1 15:07:44 23° S 15:11:50 77° W 15:18:08 10° N
Hubble Space Telescope 3.3 15:15:40 10° WSW 15:16:33 12° SW 15:16:33 12° SW
Resurs 1-3 3.9 15:19:43 64° NW 15:19:43 64° NW 15:23:34 10° NNW
Okean 1 Rocket 3.4 15:15:14 10° N 15:19:04 63° NW 15:19:04 63° NW
Cosmos 1315 Rocket 4.1 15:23:14 10° NNW 15:25:58 40° NNW 15:25:58 40° NNW
SL-4 R/B 3.9 15:23:53 10° WSW 15:27:57 32° NW 15:31:45 10° NNE
Cosmos 1605 Rocket 4.3 15:23:18 10° NNW 15:29:33 64° W 15:31:14 47° SSW
Cosmos 2360 Rocket 4.3 15:28:57 10° WSW 15:33:27 24° WNW 15:37:59 10° NNW
COSMOS 2428 3.7 16:03:27 42° NNW 16:03:27 42° NNW 16:07:31 10° N
Resurs 01 Rocket 4.0 16:07:03 21° NW 16:07:03 21° NW 16:08:48 10° NW
Lacrosse 5 3.8 16:10:05 10° NW 16:12:16 26° NW 16:12:16 26° NW
Cosmos 1844 Rocket 4.4 16:15:03 10° N 16:17:30 27° N 16:17:30 27° N
SL-16 R/B 4.4 20:15:52 25° NNE 20:15:52 25° NNE 20:18:34 10° N
SeaSat 1 4.5 20:56:56 10° NNE 20:58:53 24° NNE 20:58:53 24° NNE
ATLAS 5 CENTAUR R/B 4.4 21:08:29 37° W 21:16:44 87° SSW 22:43:24 10° ESE
Cosmos 1833 Rocket 3.5 21:19:13 47° NNE 21:19:13 47° NNE 21:23:11 10° NNE
Chandra Rocket (1) 4.0 21:18:34 50° WNW 21:20:50 61° NNW 21:25:58 10° NE
MSX 4.4 21:15:42 10° NNE 21:19:55 51° NNE 21:19:55 51° NNE
CZ-4B R/B 4.4 21:21:49 10° NNE 21:25:39 46° NE 21:25:39 46° NE
ASTEX 1 4.5 21:32:34 40° N 21:32:34 40° N 21:35:46 10° N
ARIANE 5 R/B 3.3 21:27:21 10° NNE 21:30:56 47° NNE 21:30:56 47° NNE
S3M 3.9 21:30:39 10° N 21:36:52 79° E 21:37:05 77° ESE
Cosmos 2082 Rocket 2.6 21:41:52 54° ESE 21:42:08 55° ESE 21:47:35 10° NNE
ATLAS 2A CENTAUR R/B 3.8 21:46:53 16° ESE 21:46:53 16° ESE 21:48:17 10° ESE
USA 281 4.2 21:38:23 10° SE 21:44:32 45° ENE 21:50:42 10° N
Cosmos 1743 Rocket 4.4 21:54:13 43° N 21:54:13 43° N 21:57:12 10° N
NOSS 3-4 (A) 3.4 22:01:45 55° WNW 22:01:51 55° WNW 22:07:33 10° NNE
NOSS 3-4 (C) 3.4 22:01:51 56° WNW 22:01:59 56° WNW 22:07:42 10° NNE
IDEFIX/ARIANE 42P 4.4 22:00:00 10° NNW 22:01:55 17° NW 22:01:55 17° NW
PAYLOAD A 4.0 22:01:22 10° NNE 22:06:35 86° E 22:07:39 59° S
Spot 1 4.3 22:07:03 74° SW 22:07:19 76° WSW 22:12:22 10° NNW
ADEOS Rocket 4.2 22:08:57 33° W 22:08:57 33° W 22:14:08 10° NW
COSMOS 2406 4.1 22:08:42 33° WNW 22:08:42 33° WNW 22:13:15 10° N
ATLAS 2AS CENTAUR R/B 3.0 22:08:28 37° SSW 22:11:56 81° ESE 22:19:51 10° NNE
Spot 4 Rocket 3.9 22:07:13 10° N 22:12:18 70° WNW 22:12:51 64° WSW
Sich 1 3.5 22:11:46 45° SE 22:12:49 59° E 22:17:07 10° NNE
Cosmos 1244 Rocket 4.4 22:11:12 36° S 22:13:59 89° E 22:20:13 10° N
Cosmos 883 Rocket 4.3 22:08:12 10° N 22:14:17 79° W 22:17:14 33° S
Mugunghwa Rocket 4.3 22:12:01 39° W 22:14:24 61° NNW 22:21:23 10° ENE
CZ-2C R/B 2.1 22:10:27 10° N 22:15:13 83° WNW 22:15:52 66° SSW
Cosmos 158 Rocket 3.7 22:23:34 54° SW 22:24:35 74° WNW 22:29:27 10° N
Intelsat 5-2 Rocket 4.4 22:25:05 22° NW 22:26:51 35° NNE 22:33:22 10° ENE
Cosmos 2228 Rocket 4.1 22:23:01 10° N 22:27:17 46° E 22:31:30 10° SSE
Centaur AC-125 4.3 22:26:34 12° NNW 22:28:23 21° NNE 22:32:29 10° ENE
ASC 2 Rocket 3.8 22:26:27 19° WNW 22:29:52 52° N 22:33:56 10° E
Cosmos 1656 4.0 22:25:15 10° N 22:30:53 66° ENE 22:36:27 10° SSE
Cosmos 1484 Rocket 3.7 22:28:27 10° NNE 22:32:00 43° E 22:34:18 19° SSE
Cosmos 1602 4.0 22:30:20 31° SSE 22:32:00 64° E 22:35:51 10° NNE
ALOS 2.2 22:28:49 10° NNE 22:33:29 87° E 22:35:57 28° S
Cosmos 1515 Rocket 4.0 22:31:48 10° NNW 22:35:55 39° W 22:35:55 39° W
GPS 2-15 Rocket1 3.6 22:38:29 36° SW 22:40:01 51° SSE 22:44:49 10° E
RESURS DK-1 3.3 22:40:01 17° S 22:42:55 44° ESE 22:46:51 10° NE
Cosmos 1633 Rocket 3.5 22:39:13 12° S 22:43:11 60° E 22:47:31 10° NNE
Cosmos 1697 Rocket 4.1 22:40:49 10° N 22:46:04 39° ENE 22:51:19 10° SE
BREEZE-M DEB (TANK) 3.5 22:45:33 10° NW 22:50:12 23° S 22:51:16 10° SSE
Meteor 1-20 Rocket 4.2 22:46:16 22° SSW 22:49:47 58° W 22:55:11 10° N
Cosmos 1680 Rocket 3.5 22:46:04 16° S 22:50:17 85° ESE 22:55:36 10° NNE
CENTAUR R/B 4.3 22:50:45 10° N 22:59:12 50° ENE 23:07:39 10° SE
CZ-2C R/B 4.2 22:58:22 10° NNW 23:01:06 19° WNW 23:01:33 19° W
ISS -3.6 23:00:42 23° SSW 23:02:34 67° SE 23:05:54 10° NE
Centaur D-1A AC-32 2.7 23:01:53 22° SW 23:04:10 72° SSE 23:13:12 10° ENE
PSLV R/B 4.4 23:05:13 10° NNW 23:09:07 33° WNW 23:11:54 17° SW
SL-19 R/B 4.5 23:03:00 10° S 23:09:27 79° WSW 23:15:25 10° NNW
Cosmos 1980 Rocket 4.0 23:11:11 10° N 23:16:14 35° ENE 23:21:16 10° SE
ATLAS V CENTAUR R/B 3.2 23:12:50 14° WSW 23:18:39 53° S 23:21:02 10° E
Cosmos 1709 Rocket 4.0 23:13:18 10° S 23:19:24 83° E 23:25:30 10° N
Meteor 1-14 Rocket 4.3 23:16:41 10° S 23:22:32 76° W 23:28:16 10° N
Cosmos 1745 Rocket 4.3 23:16:46 10° SSW 23:22:37 45° W 23:28:27 10° NNW
CZ-4B R/B 3.8 23:19:54 10° NNE 23:23:32 76° ESE 23:27:10 10° S
Cosmos 2369 4.1 23:19:52 10° N 23:25:29 69° ENE 23:31:05 10° SSE
Cosmos 2082 Rocket 4.1 23:24:38 10° W 23:26:18 11° WNW 23:27:58 10° NW
GPS 2-14 Rocket1 2.7 23:23:33 13° WSW 23:26:55 66° SSE 23:30:40 10° E
Cosmos 44 Rocket 3.4 23:22:45 10° SSW 23:27:43 72° WNW 23:32:50 10° NNE
USA 281 4.3 23:24:14 10° SSW 23:28:54 21° WSW 23:33:37 10° WNW
GPS 2-17 Rocket1 4.4 23:25:52 12° WSW 23:28:57 21° SSW 23:32:29 10° SSE
Cosmos 2360 4.2 23:24:07 10° NNW 23:29:48 86° WSW 23:35:28 10° SSE
IRAS Rocket 4.3 23:26:09 10° SSE 23:31:47 86° WSW 23:37:25 10° NNW
Delta 202 3.8 23:29:09 10° WSW 23:34:26 72° SSE 23:41:06 10° E
Cosmos 1500 4.2 23:32:37 10° SW 23:35:47 26° W 23:38:57 10° NNW
MOS 1 Rocket 3.1 23:32:15 10° S 23:36:30 60° W 23:40:42 10° NNW
Cosmos 1470 Rocket 3.9 23:32:16 10° SSW 23:36:35 49° W 23:40:55 10° N
Landsat 5 3.8 23:34:37 10° SSE 23:38:26 64° ENE 23:42:12 10° N
CZ-4C R/B 3.6 23:39:37 10° SSE 23:42:50 59° ENE 23:46:09 10° N
YAOGAN 6 2.9 23:39:34 10° NNE 23:43:00 65° E 23:46:26 10° S
SL-27 R/B 3.3 23:41:55 10° S 23:45:05 48° ESE 23:48:18 10° NNE
